Location: Chittendens Corners
(41.2320°N, 81.4940°W)
Time: 18:42:41
(UTC+00:00)

Cosmos 1656 - Pass Details

Date: 29 October 2020
Orbit: 796 x 851 km, 71.1° (Epoch: 23 November)

Event Time Altitude Azimuth Distance (km) Brightness Sun altitude
Rises 23:17:37 0° 204° (SSW) 3,329 7.3 -10.6°
Reaches altitude 10° 23:20:00 10° 205° (SSW) 2,410 6.6 -11.0°
Maximum altitude 23:25:33 83° 293° (WNW) 842 3.8 -12.0°
Drops below altitude 10° 23:31:12 10° 22° (NNE) 2,462 5.8 -13.1°
Sets 23:33:41 0° 23° (NNE) 3,407 6.6 -13.5°
